Location: Rounton
(54.4000°N, 1.3500°W)
Time: 19:46:11
(UTC+00:00)

A-11 Canister half - Pass Details

Date: 04 December 2021
Orbit: 1516 x 1684 km, 47.2° (Epoch: 19 January)

Event Time Altitude Azimuth Distance (km) Brightness Sun altitude
Rises 07:13:20 0° 221° (SW) 4,763 11.5 -7.4°
Reaches altitude 10° 07:16:38 10° 214° (SSW) 3,804 11.0 -7.0°
Maximum altitude 07:25:20 39° 150° (SSE) 2,279 10.6 -5.9°
Drops below altitude 10° 07:34:19 10° 86° (E) 3,924 12.1 -4.8°
Sets 07:37:45 0° 79° (E) 4,927 12.4 -4.4°
